Meadow Lake, CO

2:19 AM MDT on April 21, 2018 (GMT -0600)
Meadow Lake

Weather History for KFLY - May, 2013

Change the Weather History Date:

Thursday, May 2, 2013

  Actual Average (KCOS) Record (KCOS)
Temperature  
Mean Temperature 30 °F -  
Max Temperature 43 °F 62 °F 81 °F (1981)
Min Temperature 19 °F 37 °F 21 °F (1954)
Degree Days  
Heating Degree Days 34    
Moisture  
Dew Point 17 °F    
Average Humidity 61    
Maximum Humidity 89    
Minimum Humidity 28    
Precipitation  
Precipitation 0.00 in - - ()
Sea Level Pressure  
Sea Level Pressure 30.55 in    
Wind  
Wind Speed 8 mph (NNW)    
Max Wind Speed 15 mph    
Max Gust Speed 17 mph    
Visibility 10 miles    
Events Snow    
Averages and records for this station are not official NWS values.
T = Trace of Precipitation, MM = Missing Value Source: NWS Daily Summary

Daily Weather History Graph

Daily Weather History Graph

Search for Another Location

Airport or City:

Astronomy

May. 02, 2013 Rise Set
Actual Time 5:58 AM MDT 7:52 PM MDT
Civil Twilight 5:29 AM MDT 8:21 PM MDT
Nautical Twilight 4:54 AM MDT 8:56 PM MDT
Astronomical Twilight 4:17 AM MDT 9:34 PM MDT
Moon 1:43 AM MDT (5/2) 12:48 PM MDT (5/2)
Length of Visible Light 14h 51m
Length of Day
13h 53m
Waning Gibbous, 47% of the Moon is Illuminated
May 2
Waning Gibbous
May 9
New
May 17
First Quarter
May 24
Full
May 31
Last Quarter

Hourly Weather History & Observations

Time (MDT) Temp. Windchill Dew Point Humidity Pressure Visibility Wind Dir Wind Speed Gust Speed Precip Events Conditions
12:11 AM 21.9 °F 8.7 °F 19.2 °F 89% 30.54 in 5.0 mi North 15.0 mph - N/A Snow Light Snow
12:31 AM 22.1 °F 11.3 °F 18.7 °F 87% 30.54 in 10.0 mi North 10.4 mph - N/A   Overcast
12:51 AM 21.7 °F 9.6 °F 17.6 °F 84% 30.54 in 10.0 mi North 12.7 mph - N/A Snow Light Snow
12:57 AM 21.6 °F 9.3 °F 18.0 °F 86% 30.54 in 10.0 mi North 12.7 mph - N/A Snow Light Snow
2:11 AM 20.7 °F 11.0 °F 17.4 °F 87% 30.54 in 10.0 mi NNW 8.1 mph - N/A Snow Light Snow
2:31 AM 21.0 °F 11.4 °F 18.3 °F 89% 30.54 in 7.0 mi NNW 8.1 mph - N/A Snow Light Snow
2:51 AM 21.2 °F 12.6 °F 17.6 °F 86% 30.54 in 10.0 mi NNW 6.9 mph - N/A Snow Light Snow
3:10 AM 21.2 °F 12.6 °F 17.6 °F 86% 30.55 in 10.0 mi NNW 6.9 mph - N/A Snow Light Snow
3:27 AM 21.2 °F 12.6 °F 17.4 °F 85% 30.55 in 10.0 mi North 6.9 mph - N/A Snow Light Snow
3:51 AM 21.2 °F 11.7 °F 17.6 °F 86% 30.56 in 10.0 mi North 8.1 mph - N/A   Overcast
4:11 AM 21.2 °F 12.6 °F 17.6 °F 86% 30.56 in 10.0 mi NNW 6.9 mph - N/A   Overcast
4:31 AM 20.3 °F 9.8 °F 16.9 °F 87% 30.57 in 10.0 mi NNW 9.2 mph - N/A   Overcast
4:51 AM 20.1 °F 10.3 °F 16.7 °F 87% 30.57 in 10.0 mi NNW 8.1 mph - N/A Snow Light Snow
5:11 AM 20.7 °F 10.2 °F 17.1 °F 86% 30.58 in 10.0 mi NW 9.2 mph - N/A   Overcast
5:31 AM 21.0 °F 13.4 °F 17.6 °F 87% 30.58 in 10.0 mi NW 5.8 mph - N/A   Overcast
5:51 AM 20.7 °F 13.0 °F 17.1 °F 86% 30.59 in 10.0 mi NW 5.8 mph - N/A   Overcast
6:11 AM 20.1 °F 12.3 °F 16.5 °F 86% 30.59 in 10.0 mi NW 5.8 mph - N/A   Overcast
6:31 AM 19.4 °F 12.8 °F 15.8 °F 86% 30.60 in 10.0 mi NNW 4.6 mph - N/A   Overcast
6:51 AM 20.3 °F 11.5 °F 16.2 °F 84% 30.60 in 10.0 mi NNW 6.9 mph - N/A   Overcast
7:11 AM 21.7 °F 11.5 °F 16.5 °F 80% 30.60 in 10.0 mi NW 9.2 mph - N/A   Mostly Cloudy
7:31 AM 24.3 °F 17.3 °F 17.1 °F 74% 30.61 in 10.0 mi NW 5.8 mph - N/A   Overcast
7:51 AM 24.8 °F 19.1 °F 17.1 °F 72% 30.61 in 10.0 mi WNW 4.6 mph - N/A   Overcast
8:11 AM 26.6 °F 21.2 °F 17.8 °F 69% 30.62 in 10.0 mi NNW 4.6 mph - N/A   Mostly Cloudy
8:31 AM 28.2 °F 22.0 °F 18.1 °F 66% 30.62 in 10.0 mi NNW 5.8 mph - N/A   Scattered Clouds
8:51 AM 29.8 °F 23.0 °F 15.8 °F 56% 30.62 in 10.0 mi North 6.9 mph - N/A   Mostly Cloudy
9:11 AM 29.3 °F 22.3 °F 13.1 °F 51% 30.62 in 10.0 mi North 6.9 mph - N/A   Scattered Clouds
9:31 AM 29.1 °F 21.3 °F 13.6 °F 52% 30.62 in 10.0 mi NNE 8.1 mph - N/A   Clear
9:51 AM 29.3 °F 21.5 °F 14.2 °F 53% 30.62 in 10.0 mi NNE 8.1 mph - N/A   Clear
10:11 AM 29.8 °F 23.9 °F 14.2 °F 52% 30.62 in 10.0 mi NNE 5.8 mph - N/A   Clear
10:31 AM 30.6 °F 23.8 °F 15.4 °F 54% 30.62 in 10.0 mi NNE 6.9 mph - N/A   Clear
10:51 AM 31.1 °F 24.5 °F 17.6 °F 57% 30.63 in 10.0 mi NNE 6.9 mph - N/A   Clear
11:11 AM 31.6 °F 25.1 °F 18.9 °F 59% 30.62 in 10.0 mi NNE 6.9 mph - N/A   Clear
11:31 AM 32.0 °F 25.6 °F 20.1 °F 62% 30.62 in 10.0 mi NNE 6.9 mph - N/A   Clear
11:51 AM 32.5 °F 26.2 °F 20.1 °F 60% 30.62 in 10.0 mi NNE 6.9 mph - N/A   Clear
12:11 PM 32.4 °F 25.3 °F 18.7 °F 57% 30.61 in 10.0 mi NNE 8.1 mph - N/A   Clear
12:31 PM 34.0 °F 29.8 °F 20.7 °F 58% 30.60 in 10.0 mi ENE 4.6 mph - N/A   Clear
12:51 PM 35.1 °F 32.2 °F 17.8 °F 49% 30.59 in 10.0 mi SE 3.5 mph - N/A   Scattered Clouds
1:11 PM 36.9 °F 30.7 °F 16.7 °F 44% 30.58 in 10.0 mi NE 8.1 mph - N/A   Scattered Clouds
1:31 PM 37.0 °F 31.0 °F 16.0 °F 42% 30.57 in 10.0 mi North 8.1 mph - N/A   Scattered Clouds
1:51 PM 36.3 °F 32.5 °F 12.6 °F 38% 30.57 in 10.0 mi WNW 4.6 mph - N/A   Overcast
2:11 PM 39.9 °F 34.5 °F 12.6 °F 33% 30.56 in 10.0 mi NW 8.1 mph 17.3 mph N/A   Mostly Cloudy
2:18 PM 37.6 °F 31.6 °F 12.0 °F 35% 30.56 in 10.0 mi West 8.1 mph - N/A   Scattered Clouds
2:51 PM 38.7 °F 35.2 °F 12.7 °F 35% 30.54 in 10.0 mi SW 4.6 mph - N/A   Scattered Clouds
3:11 PM 41.7 °F - 12.2 °F 30% 30.53 in 10.0 mi Calm Calm - N/A   Scattered Clouds
3:31 PM 42.4 °F 36.5 °F 12.9 °F 30% 30.53 in 10.0 mi West 10.4 mph 17.3 mph N/A   Scattered Clouds
3:51 PM 41.9 °F 40.0 °F 11.1 °F 28% 30.52 in 10.0 mi North 3.5 mph 16.1 mph N/A   Scattered Clouds
4:11 PM 41.0 °F 36.4 °F 14.0 °F 33% 30.51 in 10.0 mi South 6.9 mph - N/A   Mostly Cloudy
4:31 PM 37.6 °F 31.6 °F 13.6 °F 38% 30.50 in 10.0 mi South 8.1 mph - N/A   Mostly Cloudy
4:51 PM 39.7 °F 34.9 °F 11.5 °F 31% 30.50 in 10.0 mi NNW 6.9 mph - N/A   Mostly Cloudy
5:11 PM 39.4 °F - 12.4 °F 33% 30.50 in 10.0 mi Calm Calm - N/A   Overcast
5:31 PM 41.5 °F - 12.9 °F 31% 30.49 in 10.0 mi Calm Calm - N/A   Scattered Clouds
5:51 PM 40.8 °F 36.2 °F 14.7 °F 35% 30.48 in 10.0 mi East 6.9 mph - N/A   Scattered Clouds
6:11 PM 40.5 °F 36.5 °F 13.3 °F 33% 30.48 in 10.0 mi NW 5.8 mph - N/A   Clear
6:31 PM 39.4 °F 35.2 °F 16.2 °F 39% 30.48 in 10.0 mi ENE 5.8 mph 16.1 mph N/A   Clear
6:51 PM 38.5 °F - 15.3 °F 39% 30.48 in 10.0 mi Calm Calm - N/A   Clear
7:11 PM 36.5 °F 31.8 °F 16.3 °F 44% 30.48 in 10.0 mi SE 5.8 mph - N/A   Clear
7:31 PM 34.3 °F 28.4 °F 18.1 °F 52% 30.48 in 10.0 mi SE 6.9 mph - N/A   Clear
7:51 PM 32.0 °F 28.7 °F 19.8 °F 61% 30.48 in 10.0 mi SSE 3.5 mph - N/A   Clear
8:11 PM 31.1 °F 27.7 °F 19.2 °F 61% 30.48 in 10.0 mi SSE 3.5 mph - N/A   Clear
8:31 PM 32.0 °F - 19.6 °F 60% 30.48 in 10.0 mi Calm Calm - N/A   Clear
8:51 PM 32.0 °F - 17.4 °F 55% 30.48 in 10.0 mi Calm Calm - N/A   Clear
9:11 PM 32.0 °F - 16.9 °F 54% 30.48 in 10.0 mi Calm Calm - N/A   Clear
9:31 PM 30.4 °F - 18.5 °F 61% 30.48 in 10.0 mi Calm Calm - N/A   Clear
9:51 PM 30.4 °F - 21.9 °F 71% 30.48 in 10.0 mi Calm Calm - N/A   Clear
10:11 PM 28.8 °F 25.0 °F 20.8 °F 72% 30.48 in 10.0 mi SW 3.5 mph - N/A   Clear
10:31 PM 28.4 °F - 18.7 °F 67% 30.47 in 10.0 mi Calm Calm - N/A   Clear
10:51 PM 29.8 °F - 20.3 °F 68% 30.46 in 10.0 mi Calm Calm - N/A   Clear
11:11 PM 29.1 °F 24.1 °F 20.1 °F 69% 30.45 in 10.0 mi SSW 4.6 mph - N/A   Clear
11:31 PM 30.2 °F 25.4 °F 19.0 °F 63% 30.44 in 10.0 mi SSW 4.6 mph - N/A   Clear
11:51 PM 28.8 °F 22.6 °F 18.0 °F 64% 30.44 in 10.0 mi SSW 5.8 mph - N/A   Clear